Location: Great Malvern
(52.1167°N, 2.3167°W)
Time: 01:21:21
(UTC+00:00)

NOSS 3-1 (C) - Pass Details

Date: 18 September 2020
Orbit: 743 x 1466 km, 63.4° (Epoch: 09 October)

Event Time Altitude Azimuth Distance (km) Brightness Sun altitude
Rises 23:18:48 0° 309° (NW) 3,749 7.2 -35.7°
Reaches altitude 10° 23:21:19 10° 315° (NW) 2,895 6.5 -35.8°
Maximum altitude 23:28:10 55° 32° (NNE) 1,425 4.4 -36.0°
Enters shadow 23:28:49 54° 51° (NE) 1,460 4.4 -36.0°
